[[{"header":{"parameterUnit":"m.s-1","parameterCategory":1,"la1":30.2991,"la2":30.254,"lo1":-89.0895,"lo2":-89.0444,"dy":0.0017,"dx":0.0017,"nx":28,"ny":28,"refTime":"2024-03-29T21:00:00:Z","depth":0,"parameterNumber":2,"parameterNumberName":"U-component_of_WINDS"},"data":[0,0,0,0,0,0,0,0,0,0,0,0,0,0,0,0,0,0,0,0,0,0,0,0,0,0,0,0,0,0,0,0,0,0,0,0,0,0,0,0,0,0,0,0,0,0,0,0,0,0,0,0,0,0,0,0,0,0,-2.2733,-2.2733,0,-2.27,-2.27,-2.27,-2.2641,-2.2639,-2.2638,-2.2637,-2.2604,-2.2604,-2.2604,0,0,0,0,0,0,0,0,0,0,0,0,0,-2.2746,-2.2746,-2.2733,-2.2733,-2.2732,-2.27,-2.27,-2.2699,-2.2641,-2.2639,-2.2638,-2.2637,-2.2604,-2.2604,-2.2604,0,0,0,0,0,0,0,0,0,0,0,0,0,-2.2729,-2.2746,-2.2733,-2.2699,-2.2696,-2.27,-2.27,-2.2699,-2.2641,-2.2639,-2.2638,-2.2636,-2.2604,-2.2604,-2.2604,-2.264,0,0,-2.2605,-2.2605,0,0,0,0,0,0,0,0,-2.273,-2.2729,-2.2704,-2.2701,-2.2698,-2.2673,-2.2692,-2.2679,-2.2641,-2.2662,-2.2637,-2.2635,-2.2628,-2.2626,-2.2624,-2.2638,-2.2637,-2.2605,-2.2605,-2.2605,-2.2606,0,0,0,0,0,0,0,-2.2732,-2.273,-2.272,-2.2704,-2.27,-2.2686,-2.2682,-2.2689,-2.2655,-2.266,-2.2656,-2.2652,-2.2626,-2.2624,-2.2623,-2.2636,-2.2605,-2.2605,-2.2606,-2.2606,-2.2678,-2.268,0,0,0,0,0,0,-2.2738,-2.2731,-2.2721,-2.2719,-2.271,-2.2687,-2.2682,-2.2682,-2.2655,-2.2649,-2.2654,-2.265,-2.2624,-2.2623,-2.2621,-2.2661,-2.2605,-2.2606,-2.2606,-2.2676,-2.2678,-2.268,0,0,0,0,0,0,-2.2738,-2.2737,-2.2722,-2.2724,-2.2721,-2.2688,-2.2689,-2.2683,-2.268,-2.265,-2.2644,-2.2658,-2.2623,-2.2621,-2.2636,-2.2659,-2.2606,-2.2606,-2.2674,-2.2677,-2.2679,-2.274,0,0,0,0,0,0,-2.2739,-2.2738,-2.275,-2.2725,-2.2721,-2.2737,-2.2691,-2.2683,-2.2681,-2.2675,-2.2652,-2.2647,-2.2621,-2.2636,-2.2636,-2.2658,-2.2606,-2.2672,-2.2675,-2.2679,-2.2736,-2.2744,-2.2752,0,0,0,0,0,-2.2739,-2.2769,-2.2751,-2.2751,-2.2736,-2.2739,-2.2736,-2.2707,-2.2683,-2.2696,-2.2677,-2.2648,-2.2657,-2.2638,-2.2637,-2.266,-2.267,-2.2674,-2.2678,-2.2732,-2.2742,-2.2751,0,0,0,0,0,0,-2.2798,-2.2765,-2.2745,-2.2767,-2.2756,-2.2729,-2.2743,-2.2719,-2.2714,-2.2709,-2.2672,-2.2668,-2.2687,-2.2675,-2.2655,-2.2693,-2.2659,-2.2663,-2.27,-2.2709,-2.2717,-2.2719,-2.2606,0,0,0,0,0,-2.2814,-2.2818,-2.2789,-2.2811,-2.2807,-2.2776,-2.2776,-2.2754,-2.2741,-2.2736,-2.2718,-2.2707,-2.2707,-2.2708,-2.2706,-2.2734,-2.2728,-2.275,-2.2758,-2.2764,-2.2768,-2.2782,-2.2791,-2.2693,-2.2693,-2.2693,0,0,-2.2846,-2.2828,-2.2833,-2.2822,-2.2811,-2.2817,-2.2773,-2.278,-2.2784,-2.2737,-2.275,-2.2736,-2.2721,-2.2743,-2.2751,-2.2733,-2.2794,-2.2769,-2.2775,-2.2775,-2.2787,-2.2796,-2.2804,-2.2696,-2.2696,-2.2695,0,0,-2.2907,-2.2894,-2.2911,-2.2901,-2.2885,-2.2865,-2.2869,-2.2845,-2.2834,-2.2846,-2.2812,-2.2816,-2.2817,-2.2808,-2.2803,-2.2862,-2.2835,-2.2863,-2.2904,-2.2918,-2.2926,-2.2932,-2.2953,-2.2961,-2.2867,-2.2867,-2.2867,0,-2.2948,-2.2955,-2.2923,-2.2933,-2.2929,-2.2888,-2.2905,-2.2897,-2.2881,-2.288,-2.286,-2.2861,-2.2848,-2.2867,-2.2881,-2.2879,-2.2883,-2.2865,-2.2927,-2.2933,-2.2939,-2.2958,-2.2966,-2.287,-2.287,-2.287,-2.2869,0,-2.3007,-2.3012,-2.3028,-2.3014,-2.3012,-2.3026,-2.2996,-2.2999,-2.2977,-2.2959,-2.2972,-2.2956,-2.295,-2.2953,-2.2932,-2.2969,-2.2958,-2.2934,-2.2898,-2.2952,-2.297,-2.2977,-2.2875,-2.2874,-2.2873,-2.2872,0,0,-2.3103,-2.3071,-2.3078,-2.3071,-2.305,-2.3054,-2.3066,-2.306,-2.3063,-2.3054,-2.3063,-2.3066,-2.3043,-2.3038,-2.3016,-2.3028,-2.3075,-2.3002,-2.3001,-2.3015,-2.3114,-2.3132,-2.3141,-2.3058,-2.3059,-2.306,-2.3115,0,-2.3158,-2.3176,-2.3149,-2.3173,-2.3178,-2.3139,-2.315,-2.3138,-2.3123,-2.3124,-2.3106,-2.3109,-2.3078,-2.3075,-2.3086,-2.3067,-2.3095,-2.3063,-2.3066,-2.3066,-2.3069,-2.315,-2.3169,-2.3222,-2.3122,-2.3123,-2.3124,0,-2.3226,-2.322,-2.3245,-2.3223,-2.3224,-2.3234,-2.3227,-2.3229,-2.3216,-2.3203,-2.3199,-2.3173,-2.3183,-2.315,-2.3164,-2.3144,-2.3143,-2.3134,-2.3136,-2.3134,-2.3097,-2.315,-2.3238,-2.3246,-2.3134,-2.3133,-2.3133,0,-2.3292,-2.3291,-2.3305,-2.3301,-2.3276,-2.3284,-2.3274,-2.3259,-2.3258,-2.3252,-2.3251,-2.3247,-2.3244,-2.3242,-2.3216,-2.3194,-2.3233,-2.3198,-2.3222,-2.3223,-2.3231,-2.3231,-2.332,-2.3233,-2.3233,-2.3233,-2.3233,0,-2.3357,-2.3373,-2.3335,-2.3344,-2.3362,-2.333,-2.3349,-2.3335,-2.3322,-2.3328,-2.3295,-2.3301,-2.3267,-2.327,-2.3249,-2.3264,-2.3263,-2.3253,-2.3247,-2.3256,-2.3257,-2.3254,-2.3249,-2.3235,-2.3234,-2.3234,-2.3234,0,-2.3433,-2.3408,-2.3422,-2.3398,-2.3392,-2.3406,-2.3385,-2.3393,-2.3375,-2.3383,-2.3383,-2.3356,-2.3357,-2.3331,-2.3328,-2.3314,-2.3337,-2.3325,-2.3342,-2.3337,-2.3363,-2.3361,-2.3452,-2.3463,-2.3371,-2.3372,-2.3372,0,-2.3475,-2.3487,-2.3465,-2.3466,-2.3458,-2.3461,-2.3459,-2.3429,-2.3429,-2.3416,-2.3425,-2.3424,-2.3421,-2.3425,-2.3405,-2.3402,-2.339,-2.3422,-2.3389,-2.3397,-2.3389,-2.3388,-2.3389,-2.3429,-2.343,-2.3431,-2.3431,0,-2.3553,-2.354,-2.3539,-2.3534,-2.3534,-2.3528,-2.3521,-2.3524,-2.3491,-2.3493,-2.3494,-2.3492,-2.3489,-2.3488,-2.3482,-2.3472,-2.3446,-2.3442,-2.3448,-2.3455,-2.3464,-2.3459,-2.3359,-2.344,-2.3439,-2.3438,-2.3438,-2.3438,-2.3613,-2.3622,-2.3607,-2.3608,-2.3599,-2.3593,-2.3599,-2.3582,-2.3583,-2.3577,-2.356,-2.3564,-2.3551,-2.354,-2.3532,-2.3535,-2.3519,-2.3527,-2.3529,-2.3531,-2.3536,-2.3465,-2.3534,-2.3534,-2.3533,-2.3533,-2.3533,0,-2.3688,-2.3677,-2.3678,-2.3668,-2.3669,-2.3645,-2.3636,-2.3638,-2.3642,-2.3632,-2.3631,-2.3632,-2.3631,-2.3612,-2.3609,-2.3615,-2.3603,-2.3615,-2.3614,-2.3612,-2.3551,-2.3546,-2.3624,-2.3624,-2.3624,-2.3624,-2.3624,-2.3624,-2.3727,-2.3741,-2.3727,-2.3736,-2.3725,-2.3728,-2.3725,-2.372,-2.3712,-2.3715,-2.3714,-2.3701,-2.3687,-2.3683,-2.3682,-2.3676,-2.3676,-2.3692,-2.3682,-2.3625,-2.3616,-2.3607,-2.3603,-2.3692,-2.3692,-2.3742,-2.3743,-2.3743]},{"header":{"parameterUnit":"m.s-1","parameterCategory":1,"la1":30.2991,"la2":30.254,"lo1":-89.0895,"lo2":-89.0444,"dy":0.0017,"dx":0.0017,"nx":28,"ny":28,"refTime":"2024-03-29T21:00:00:Z","depth":0,"parameterNumber":3,"parameterNumberName":"V-component_of_WINDS"},"data":[0,0,0,0,0,0,0,0,0,0,0,0,0,0,0,0,0,0,0,0,0,0,0,0,0,0,0,0,0,0,0,0,0,0,0,0,0,0,0,0,0,0,0,0,0,0,0,0,0,0,0,0,0,0,0,0,0,0,4.2281,4.2281,0,4.2249,4.2249,4.2249,4.2198,4.2197,4.2196,4.2196,4.216,4.216,4.216,0,0,0,0,0,0,0,0,0,0,0,0,0,4.2297,4.2297,4.2281,4.2281,4.228,4.2249,4.2249,4.2248,4.2198,4.2197,4.2196,4.2195,4.216,4.216,4.216,0,0,0,0,0,0,0,0,0,0,0,0,0,4.228,4.2297,4.2281,4.2251,4.2249,4.2249,4.2249,4.2248,4.2199,4.2197,4.2196,4.2195,4.216,4.216,4.216,4.2186,0,0,4.2159,4.2159,0,0,0,0,0,0,0,0,4.2281,4.2279,4.2256,4.2254,4.225,4.2226,4.2241,4.2227,4.2199,4.2217,4.2195,4.2194,4.2183,4.2181,4.2178,4.2184,4.2183,4.2159,4.2159,4.2159,4.2159,0,0,0,0,0,0,0,4.2282,4.228,4.2268,4.2256,4.2252,4.2239,4.2236,4.2239,4.2208,4.2216,4.2212,4.2209,4.2181,4.2178,4.2177,4.2182,4.2159,4.2159,4.2159,4.2159,4.2211,4.2212,0,0,0,0,0,0,4.2288,4.2282,4.2269,4.2267,4.2263,4.224,4.2236,4.2235,4.2208,4.2203,4.221,4.2207,4.2179,4.2177,4.2175,4.2205,4.2159,4.2159,4.2159,4.2209,4.2211,4.2213,0,0,0,0,0,0,4.2289,4.2287,4.2271,4.2274,4.227,4.2241,4.2241,4.2235,4.2232,4.2204,4.2198,4.2213,4.2178,4.2175,4.2184,4.2203,4.2159,4.2159,4.2208,4.221,4.2212,4.2264,0,0,0,0,0,0,4.2289,4.2288,4.2298,4.2274,4.2271,4.2281,4.2242,4.2236,4.2233,4.2228,4.2205,4.22,4.2177,4.2185,4.2184,4.2202,4.2159,4.2206,4.2209,4.2211,4.2261,4.2268,4.2274,0,0,0,0,0,4.229,4.2313,4.2298,4.2297,4.2282,4.2282,4.228,4.2254,4.2234,4.2244,4.2226,4.22,4.2202,4.2186,4.2185,4.2203,4.2204,4.2208,4.2211,4.2258,4.2266,4.2274,0,0,0,0,0,0,4.2337,4.2309,4.2293,4.2309,4.2298,4.2273,4.2284,4.2264,4.2257,4.2253,4.222,4.2215,4.2229,4.2217,4.22,4.2228,4.2199,4.2202,4.2235,4.2243,4.225,4.2252,4.2159,0,0,0,0,0,4.235,4.2353,4.2327,4.2344,4.234,4.2313,4.2312,4.2293,4.2281,4.2276,4.2258,4.2246,4.2244,4.2243,4.2239,4.2259,4.2254,4.2271,4.2278,4.2284,4.2286,4.2297,4.2305,4.2223,4.2223,4.2223,0,0,4.2375,4.236,4.2363,4.2353,4.2343,4.2346,4.231,4.2314,4.2316,4.2276,4.2284,4.2271,4.2256,4.2271,4.2276,4.2261,4.2308,4.2288,4.2293,4.2292,4.2301,4.2309,4.2316,4.2226,4.2225,4.2225,0,0,4.2423,4.2412,4.2425,4.2416,4.2402,4.2384,4.2388,4.2367,4.2357,4.2365,4.2335,4.2337,4.2334,4.2324,4.2319,4.2367,4.2343,4.2367,4.2401,4.2412,4.2419,4.2424,4.2441,4.2448,4.237,4.237,4.237,0,4.2456,4.246,4.2434,4.2441,4.2438,4.2404,4.2417,4.2409,4.2394,4.2392,4.2376,4.2372,4.2359,4.2372,4.2384,4.2381,4.2384,4.2368,4.242,4.2425,4.243,4.2446,4.2453,4.2373,4.2372,4.2372,4.2372,0,4.2502,4.2505,4.2518,4.2506,4.2504,4.2514,4.2489,4.249,4.2472,4.2457,4.2466,4.245,4.2443,4.2445,4.2427,4.2456,4.2447,4.2426,4.2396,4.2441,4.2456,4.2462,4.2377,4.2376,4.2375,4.2374,0,0,4.2576,4.2551,4.2556,4.2551,4.2534,4.2536,4.2545,4.254,4.2542,4.2533,4.254,4.2539,4.2521,4.2515,4.2496,4.2505,4.2545,4.2483,4.2482,4.2495,4.2577,4.2593,4.26,4.253,4.2531,4.2532,4.2578,0,4.262,4.2634,4.2612,4.2632,4.2635,4.2604,4.2612,4.2603,4.2589,4.259,4.2575,4.2575,4.255,4.2546,4.2555,4.2539,4.2561,4.2535,4.2536,4.2536,4.254,4.2608,4.2624,4.2668,4.2584,4.2585,4.2585,0,4.2672,4.2668,4.2688,4.2672,4.2673,4.268,4.2675,4.2676,4.2665,4.2654,4.265,4.2628,4.2636,4.2609,4.2619,4.2602,4.2602,4.2594,4.2595,4.2593,4.2563,4.2607,4.2681,4.2688,4.2594,4.2593,4.2593,0,4.2725,4.2724,4.2736,4.2733,4.2714,4.272,4.2713,4.27,4.2699,4.2695,4.2694,4.2689,4.2687,4.2684,4.2662,4.2644,4.2676,4.2646,4.2667,4.2668,4.2674,4.2673,4.2748,4.2675,4.2675,4.2675,4.2674,0,4.2775,4.2789,4.276,4.2767,4.2782,4.2757,4.2773,4.2762,4.2752,4.2757,4.2729,4.2735,4.2705,4.2708,4.269,4.2702,4.2701,4.2693,4.2688,4.2695,4.2696,4.2693,4.2689,4.2676,4.2676,4.2676,4.2675,0,4.2835,4.2817,4.2828,4.281,4.2806,4.2818,4.2802,4.2809,4.2795,4.2802,4.2802,4.2779,4.2781,4.2759,4.2755,4.2744,4.2763,4.2753,4.2767,4.2764,4.2786,4.2784,4.2861,4.287,4.2791,4.2792,4.2793,0,4.2868,4.2879,4.2863,4.2865,4.2859,4.2862,4.2861,4.2838,4.2838,4.2828,4.2836,4.2836,4.2834,4.2838,4.2821,4.2818,4.2808,4.2835,4.2807,4.2814,4.2808,4.2807,4.2808,4.284,4.2841,4.2842,4.2843,0,4.2929,4.292,4.2921,4.2919,4.292,4.2917,4.2912,4.2915,4.2889,4.2891,4.2893,4.2892,4.289,4.289,4.2885,4.2877,4.2856,4.2852,4.2857,4.2863,4.2871,4.2867,4.2783,4.285,4.2849,4.2849,4.2848,4.2848,4.2977,4.2985,4.2975,4.2977,4.2972,4.2969,4.2974,4.2962,4.2964,4.2961,4.2947,4.2952,4.2942,4.2934,4.2928,4.2931,4.2917,4.2924,4.2926,4.2927,4.2932,4.2872,4.293,4.293,4.2929,4.2929,4.2929,0,4.3036,4.3029,4.3032,4.3027,4.3029,4.3011,4.3005,4.3008,4.3013,4.3006,4.3006,4.3009,4.3009,4.2994,4.2992,4.2998,4.2989,4.2998,4.2997,4.2996,4.2944,4.294,4.3006,4.3006,4.3006,4.3006,4.3006,4.3006,4.3067,4.308,4.307,4.3081,4.3074,4.3079,4.3077,4.3075,4.3069,4.3074,4.3075,4.3066,4.3056,4.3054,4.3054,4.305,4.305,4.3063,4.3056,4.3007,4.2999,4.2992,4.2988,4.3064,4.3064,4.3107,4.3108,4.3108]}]]